Location: Jackson Park
(37.2862°N, 79.9123°W)
Time: 01:35:04
(UTC+00:00)

Tiros 1 despin weight - Pass Details

Date: 10 May 2026
Orbit: 554 x 591 km, 48.2° (Epoch: 6 June)

Event Time Altitude Azimuth Distance (km) Brightness Sun altitude
Rises 16:58:24 0° 307° (NW) 2,729 ? 70.1°
Reaches altitude 10° 17:00:49 10° 317° (NW) 1,834 ? 70.2°
Maximum altitude 17:04:37 33° 23° (NNE) 945 ? 70.3°
Drops below altitude 10° 17:08:26 10° 88° (E) 1,837 ? 70.4°
Sets 17:10:51 0° 98° (E) 2,735 ? 70.4°
